TimeEDT,TemperatureF,Dew PointF,Humidity,Sea Level PressureIn,VisibilityMPH,Wind Direction,Wind SpeedMPH,Gust SpeedMPH,PrecipitationIn,Events,Conditions,WindDirDegrees,DateUTC
12:54 AM,42.1,37.0,82,30.17,10.0,East,4.6,-,0.01,Rain,Light Rain,80,2013-04-12 04:54:00
1:54 AM,41.0,36.0,82,30.17,10.0,SE,4.6,-,0.00,,Overcast,140,2013-04-12 05:54:00
2:54 AM,39.9,36.0,86,30.16,10.0,SE,6.9,-,0.02,Rain,Light Rain,130,2013-04-12 06:54:00
3:54 AM,39.9,36.0,86,30.17,5.0,ESE,9.2,-,0.03,Rain,Light Rain,110,2013-04-12 07:54:00
4:04 AM,39.2,37.4,93,30.17,9.0,ESE,10.4,-,0.01,Rain,Light Rain,110,2013-04-12 08:04:00
4:54 AM,39.9,35.1,83,30.17,10.0,ESE,12.7,-,0.01,,Overcast,110,2013-04-12 08:54:00
5:54 AM,39.9,34.0,79,30.17,10.0,ENE,17.3,-,N/A,,Overcast,70,2013-04-12 09:54:00
6:47 AM,39.2,30.2,70,30.17,10.0,East,23.0,27.6,0.00,,Overcast,80,2013-04-12 10:47:00
6:54 AM,39.9,30.9,70,30.17,10.0,East,21.9,-,0.00,,Overcast,80,2013-04-12 10:54:00
7:54 AM,39.9,28.9,65,30.17,10.0,East,24.2,29.9,N/A,,Overcast,80,2013-04-12 11:54:00
8:54 AM,39.9,32.0,73,30.16,10.0,East,26.5,32.2,0.00,Rain,Light Rain,90,2013-04-12 12:54:00
9:54 AM,39.9,32.0,73,30.14,10.0,East,25.3,32.2,0.00,,Overcast,90,2013-04-12 13:54:00
10:54 AM,41.0,30.9,67,30.10,10.0,East,25.3,-,N/A,,Overcast,100,2013-04-12 14:54:00
11:54 AM,39.9,33.1,77,30.08,10.0,East,24.2,-,0.00,Rain,Light Rain,100,2013-04-12 15:54:00
12:54 PM,39.0,33.1,79,30.06,3.0,ESE,23.0,-,0.07,Rain,Heavy Rain,120,2013-04-12 16:54:00
1:54 PM,37.9,33.1,83,30.04,5.0,East,20.7,-,0.11,Rain,Light Rain,90,2013-04-12 17:54:00
2:54 PM,37.9,34.0,86,30.01,5.0,East,23.0,-,0.02,Rain,Rain,100,2013-04-12 18:54:00
3:54 PM,39.0,35.1,86,29.95,10.0,East,20.7,27.6,0.04,Rain,Light Rain,100,2013-04-12 19:54:00
4:05 PM,39.2,35.6,87,29.94,10.0,East,19.6,-,0.00,,Overcast,100,2013-04-12 20:05:00
4:54 PM,39.0,35.1,86,29.93,10.0,East,17.3,-,0.00,,Overcast,80,2013-04-12 20:54:00
5:06 PM,37.4,33.8,87,29.93,2.5,East,18.4,-,0.00,Rain,Light Rain,80,2013-04-12 21:06:00
5:22 PM,37.4,35.6,93,29.92,1.5,East,16.1,-,0.00,Rain,Light Rain,80,2013-04-12 21:22:00
5:40 PM,37.4,35.6,93,29.91,1.8,East,20.7,-,0.00,Rain,Light Rain,80,2013-04-12 21:40:00
5:54 PM,37.9,36.0,93,29.91,2.0,ENE,20.7,-,0.01,Rain,Light Rain,70,2013-04-12 21:54:00
6:54 PM,39.0,37.0,93,29.88,2.0,ENE,19.6,25.3,0.02,Rain,Light Rain,60,2013-04-12 22:54:00
7:54 PM,39.0,37.0,93,29.84,2.5,ENE,23.0,-,0.01,Rain,Light Rain,60,2013-04-12 23:54:00
8:54 PM,39.9,37.9,93,29.84,2.5,NE,17.3,-,0.01,Rain,Light Rain,50,2013-04-13 00:54:00
9:54 PM,39.0,37.0,93,29.82,2.5,NE,16.1,-,0.00,,Overcast,40,2013-04-13 01:54:00
10:54 PM,39.0,37.0,93,29.80,2.5,NNE,19.6,-,0.00,,Overcast,30,2013-04-13 02:54:00
11:54 PM,39.0,37.0,93,29.79,2.5,NNE,17.3,25.3,0.00,,Overcast,30,2013-04-13 03:54:00